sat.trackr.live / text

‹ back to catalog

STARLINK-5468

NORAD 54777 · 2022-175V

PAYLOAD ACTIVE UNKNOWN

§ Identity

Operator
Country
US
Launch date
2022-12-17
Launch site
AFETR
Launch vehicle
Mass (kg)
RCS (m²)

Purposes: comms

External: N2YO · Heavens-Above · Gunter

§ Orbital elements

Epoch: 2026-09-20T14:04:03.355680Z

Period
93.85 min
Inclination
53.1588°
Eccentricity
0.0001288
Mean motion
15.34385720 rev/d
Perigee alt
461.9 km
Apogee alt
463.6 km
Semi-major
6,840.9 km
B*
-7.9588e-6
RAAN
237.1851°
Arg perigee
63.4225°
Mean anomaly
296.6909°
Rev number
20,950

§ Raw data

STARLINK-54681 54777U 22175V   26263.58614995 -.00000645  00000+0 -79588-5 0  99912 54777  53.1588 237.1851 0001288  63.4225 296.6909 15.34385720209505

JSON: /api/v1/satellites/54777 · /tle

For live sub-satellite position, see the globe view (requires WebGL).

§ Visibility from observer

Set your observer location to see the next 7 days of passes ≥ 10°. The values pass through the URL so the page stays shareable.

No JS? Fill the form by hand. The geolocation button needs JavaScript.